Regional Weather Roundup
Issued by NWS San Angelo, TX

Home | Current Version | Previous Version | Graphics & Text | Print | Product List | Glossary Off
Versions: 1 2 3 4 5 6 7 8 9 10 11 12 13 14 15 16 17 18 19 20 21 22 23 24 25 26 27 28 29 30 31 32 33 34 35 36 37 38 39 40 41 42 43 44 45 46 47 48 49 50

000
ASUS44 KSJT 291410
RWRSJT
WEST CENTRAL TEXAS REGIONAL WEATHER ROUNDUP
NATIONAL WEATHER SERVICE SAN ANGELO TX
900 AM CDT SAT AUG 29 2015

NOTE: "FAIR" INDICATES FEW OR NO CLOUDS BELOW 12,000 FEET WITH NO
SIGNIFICANT WEATHER AND/OR OBSTRUCTIONS TO VISIBILITY.

TXZ049-054-064>066-071>073-076>078-098-099-113-114-127-128-139-140-
154-155-168>170-291500
...LOCATIONS ACROSS WEST CENTRAL TEXAS...

CITY           SKY/WX    TMP DP  RH WIND       PRES   REMARKS
SAN ANGELO     PTSUNNY   76  60  57 SW3       30.10R
ABILENE        MOSUNNY   80  57  45 SW12      30.06R
DYESS AFB      CLOUDY    81  57  43 SW8       30.05R
JUNCTION       MOSUNNY   72  60  66 SW5       30.09R
SWEETWATER     CLOUDY    80  54  40 SW7       30.12S
BROWNWOOD      NOT AVBL
COLEMAN        PTSUNNY   76  62  62 SW7       30.09S
SONORA         CLOUDY    72  59  64 S7        30.14R
OZONA          FAIR      70  57  64 S3        30.13S
BRADY          SUNNY     75  61  60 SW5       30.10R
$$

TEXAS PANHANDLE/OKLAHOMA PANHANDLE

CITY           SKY/WX    TMP DP  RH WIND       PRES   REMARKS
AMARILLO       PTSUNNY   69  61  75 NW8       30.16R
BORGER         PTSUNNY   71  61  70 NW5       30.15R
CANADIAN       MOSUNNY   70  65  84 N3        30.10R
DALHART        SUNNY     68  59  73 N9        30.21R
DUMAS          MOSUNNY   66  59  76 N8        30.18R
GUYMON         NOT AVBL
HEREFORD       PTSUNNY   67  63  87 CALM      30.18R
PAMPA          PTSUNNY   70  64  80 NW3       30.15R
PERRYTON       SUNNY     71  65  83 NE10      30.14R
$$

SOUTHERN PANHANDLE/SOUTH PLAINS/ROLLING PLAINS

CITY           SKY/WX    TMP DP  RH WIND       PRES   REMARKS
LUBBOCK        CLOUDY    71  65  81 SW8       30.15R
SNYDER         CLOUDY    76  61  60 NW8       30.11R
CHILDRESS      CLOUDY    71  66  84 NW7       30.05R
SEMINOLE       CLOUDY    69  64  81 N6        30.18R
$$

PERMIAN BASIN

CITY           SKY/WX    TMP DP  RH WIND       PRES   REMARKS
MIDLAND        LGT RAIN  71  65  81 N10       30.13R
ODESSA         CLOUDY    72  62  71 NE12      30.15R
WINK           CLOUDY    72  64  76 N9        30.13R
$$

FAR WEST/SOUTHWEST MOUNTAINS/TRANS PECOS

CITY           SKY/WX    TMP DP  RH WIND       PRES   REMARKS
ALPINE         CLOUDY    69  56  62 CALM      30.25R
DRYDEN           N/A     74  61  63 VRB6      30.08R
EL PASO        PTSUNNY   72  60  66 N12       30.16R
FORT STOCKTON  CLOUDY    73  52  47 SE10      30.11R
GUADALUPE PASS SUNNY     67  56  67 NE21      30.27R
MARFA          CLOUDY    68  57  68 N8        30.23R
PECOS          CLOUDY    74  62  64 N8        30.13R
$$

DALLAS/FORT WORTH METROPLEX

CITY           SKY/WX    TMP DP  RH WIND       PRES   REMARKS
DFW AIRPORT    PTSUNNY   80  65  59 S10       30.00S
FTW MEACHAM    PTSUNNY   83  65  54 S7        30.00S
DAL-EXECUTIVE  PTSUNNY   77  65  66 S6        30.02R
GRAND PRAIRIE  SUNNY     79  66  65 S6        30.03S
ADDISON        PTSUNNY   79  66  65 SE6       30.02S
MESQUITE       SUNNY     73  70  88 S3        30.02S
LANCASTER      DRIZZLE   75  65  70 S3        30.03S
$$

NORTH CENTRAL TEXAS

CITY           SKY/WX    TMP DP  RH WIND       PRES   REMARKS
SHRMAN/DENISON PTSUNNY   78  71  80 S9        30.02S
GAINESVILLE    MOSUNNY   82  64  54 SE9       30.02R
BRIDGEPORT     CLOUDY    82  64  53 SE3       30.02S
DENTON         MOSUNNY   81  65  58 S9        30.00S
WAXAHACHIE     PTSUNNY   76  67  71 SW6       30.03S
GRANBURY       CLOUDY    81  64  57 S6        30.02F
$$

WESTERN NORTH TEXAS

CITY           SKY/WX    TMP DP  RH WIND       PRES   REMARKS
WICHITA FALLS  MOSUNNY   80  62  54 S10       29.97R
VERNON         PTSUNNY   75  61  61 CALM      30.00R
BRECKENRIDGE   CLOUDY    81  57  44 SW10      30.02S HAZE
COMANCHE       CLOUDY    79  62  56 SW8G20    30.06S
$$

CENTRAL AND SOUTH CENTRAL TEXAS

CITY           SKY/WX    TMP DP  RH WIND       PRES   REMARKS
AUSTIN/BERGSTM MOSUNNY   74  66  76 CALM      30.05R
WACO           CLOUDY    78  64  61 S10       30.04S
HILLSBORO      CLOUDY    77  64  63 S10       30.04R
TEMPLE         CLOUDY    75  63  64 S5        30.06R
KILLEEN-GRAY   PTSUNNY   74  63  67 SW5       30.06R
FORT HOOD      CLOUDY    76  63  64 SW6       30.05R
GEORGETOWN     NOT AVBL
LAGO VISTA     FAIR      75  63  64 W7        30.09R
SAN MARCOS     SUNNY     73  66  78 CALM      30.07R
NEW BRAUNFELS  SUNNY     76  67  73 CALM      30.04R
RANDOLPH AFB   SUNNY     76  64  67 W6        30.05R
SAN ANTONIO    SUNNY     76  64  66 W6        30.06R
STINSON        SUNNY     77  65  66 W5        30.04R
PLEASANTON     NOT AVBL
LA GRANGE      SUNNY     77  68  74 CALM      30.04R
GIDDINGS       SUNNY     76  66  71 CALM      30.09S
$$

EAST TEXAS

CITY           SKY/WX    TMP DP  RH WIND       PRES   REMARKS
PARIS          CLOUDY    73  61  64 SE3       30.04R
CLARKSVILLE    NOT AVBL
TYLER          PTSUNNY   80  67  64 SW12G20   30.04S
LONGVIEW       MOSUNNY   77  69  76 S8        30.05R
PALESTINE      MOSUNNY   76  70  79 S3        30.07S
NACOGDOCHES    MOSUNNY   73  70  88 W3        30.06R
$$

TEXAS HILL COUNTRY AND EDWARDS PLATEAU

CITY           SKY/WX    TMP DP  RH WIND       PRES   REMARKS
LLANO          SUNNY     77  61  57 W3        30.11R
HORSESHOE BAY  FAIR      77  62  60 CALM      30.08R
KERRVILLE      SUNNY     72  65  79 CALM      30.09R
FREDERICKSBRG  SUNNY     71  61  70 CALM      30.10R
ROCKSPRINGS    SUNNY     72  63  73 S9        30.13R
HONDO          SUNNY     74  63  68 CALM      30.08R
UVALDE         SUNNY     73  63  68 E3        30.08R
DEL RIO        SUNNY     74  62  66 E8        30.03S
$$

SOUTHEAST TEXAS

CITY           SKY/WX    TMP DP  RH WIND       PRES   REMARKS
COLLEGE STN    SUNNY     76  68  76 W6        30.06R
CALDWELL       SUNNY     75  70  83 SW7       30.09S
CROCKETT       SUNNY     75  70  83 SW5       30.09S
BRENHAM        SUNNY     76  71  85 CALM      30.06R
HUNTSVILLE     SUNNY     78  69  73 W6        30.06R
CONROE         SUNNY     77  69  76 CALM      30.06R
HOUSTON BUSH   MOSUNNY   78  71  79 CALM      30.04R
HOUSTON HOBBY  MOSUNNY   79  68  69 CALM      30.03R
PERLAND        SUNNY     80  69  69 CALM      30.05R
WHARTON        SUNNY     75  71  87 CALM      30.04S
$$

THE UPPER TEXAS COAST

CITY           SKY/WX    TMP DP  RH WIND       PRES   REMARKS
ORANGE         SUNNY     75  74  96 CALM      30.06R
PORT ARTHUR    SUNNY     80  70  71 CALM      30.04R
GALVESTON      MOSUNNY   84  65  52 VRB3      30.04R
ANGLETON       SUNNY     77  71  82 CALM      30.03R
BAY CITY       SUNNY     77  72  84 CALM      30.03S
$$

TEXAS COASTAL BEND, RIO GRANDE PLAINS DEEP SOUTH TEXAS

CITY           SKY/WX    TMP DP  RH WIND       PRES   REMARKS
VICTORIA       SUNNY     75  71  87 N3        30.04R
BEEVILLE       FAIR      76  72  87 CALM      30.03S
ROCKPORT       SUNNY     81  69  67 NW7       30.02R
PORT ARANSAS   SUNNY     83  66  56 SW3       30.01S
PORT LAVACA    SUNNY     77  71  83 N5        30.03R
CORPUS CHRISTI MOSUNNY   79  66  64 NW3       30.02R
KINGSVILLE NAS SUNNY     78  69  73 CALM      30.03R
COTULLA        SUNNY     77  64  64 SE6       30.03S
LAREDO         SUNNY     78  64  61 E7        30.04R
BROWNSVILLE    SUNNY     81  69  67 NE3       30.00R
PORT ISABEL    SUNNY     83  69  62 NE5       30.00R
HEBBRONVILLE   NOT AVBL
MCALLEN        SUNNY     82  67  60 E6        30.01R
WESLACO        SUNNY     78  67  67 E5        30.01R
FALFURRIAS     SUNNY     73  65  76 CALM      30.02R
EDINBURG       SUNNY     78  67  71 E3        30.02R
$$



USA.gov is the U.S. government's official web portal to all federal, state and local government web resources and services.